owner,sensor,date,latitude,longitude,vertical_datum,wind_speed,wind_to_direction,wind_speed_of_gust,qcFlag 
NDBC,ioos:station:NOAA.NDBC:SGOF1:1,2015-09-01T00:00:00Z,29.4080,-84.8580,35.1,5.7,110.0,6.2,'1111122,1111122,1111122' 
NDBC,ioos:station:NOAA.NDBC:SGOF1:1,2015-09-01T01:00:00Z,29.4080,-84.8580,35.1,4.6,100.0,5.1,'1111122,1111122,1111122' 
NDBC,ioos:station:NOAA.NDBC:SGOF1:1,2015-09-01T02:00:00Z,29.4080,-84.8580,35.1,4.1,110.0,5.1,'1111122,1111122,1111122' 
NDBC,ioos:station:NOAA.NDBC:SGOF1:1,2015-09-01T03:00:00Z,29.4080,-84.8580,35.1,3.6,110.0,4.1,'1111122,1111122,1111122' 
NDBC,ioos:station:NOAA.NDBC:SGOF1:1,2015-09-01T04:00:00Z,29.4080,-84.8580,35.1,4.1,110.0,4.6,'1111122,1111122,1111122' 
NDBC,ioos:station:NOAA.NDBC:SGOF1:1,2015-09-01T05:00:00Z,29.4080,-84.8580,35.1,4.6,100.0,5.1,'1111122,1111122,1111122' 
NDBC,ioos:station:NOAA.NDBC:SGOF1:1,2015-09-01T06:00:00Z,29.4080,-84.8580,35.1,3.1,120.0,4.1,'1111122,1111122,1111122' 
NDBC,ioos:station:NOAA.NDBC:SGOF1:1,2015-09-01T07:00:00Z,29.4080,-84.8580,35.1,0.5,160.0,1.0,'1111122,1111122,1111122' 
NDBC,ioos:station:NOAA.NDBC:SGOF1:1,2015-09-01T10:00:00Z,29.4080,-84.8580,35.1,0.5,160.0,1.0,'1111122,1111122,1111122' 
NDBC,ioos:station:NOAA.NDBC:SGOF1:1,2015-09-01T11:00:00Z,29.4080,-84.8580,35.1,2.6,100.0,2.6,'1111122,1111122,1111122' 
NDBC,ioos:station:NOAA.NDBC:SGOF1:1,2015-09-01T12:00:00Z,29.4080,-84.8580,35.1,5.1,340.0,5.1,'1111122,1111122,1111122' 
NDBC,ioos:station:NOAA.NDBC:SGOF1:1,2015-09-01T13:00:00Z,29.4080,-84.8580,35.1,7.7,30.0,8.2,'1111122,1111122,1111122' 
NDBC,ioos:station:NOAA.NDBC:SGOF1:1,2015-09-01T14:00:00Z,29.4080,-84.8580,35.1,5.1,360.0,6.2,'1111122,1111122,1111122' 
NDBC,ioos:station:NOAA.NDBC:SGOF1:1,2015-09-01T16:00:00Z,29.4080,-84.8580,35.1,6.2,20.0,6.7,'1111122,1111122,1111122' 
NDBC,ioos:station:NOAA.NDBC:SGOF1:1,2015-09-01T17:00:00Z,29.4080,-84.8580,35.1,6.7,40.0,7.7,'1111122,1111122,1111122' 
NDBC,ioos:station:NOAA.NDBC:SGOF1:1,2015-09-01T18:00:00Z,29.4080,-84.8580,35.1,7.2,60.0,7.7,'1111122,1111122,1111122' 
NDBC,ioos:station:NOAA.NDBC:SGOF1:1,2015-09-01T19:00:00Z,29.4080,-84.8580,35.1,6.2,140.0,6.2,'1111122,1111122,1111122' 
NDBC,ioos:station:NOAA.NDBC:SGOF1:1,2015-09-01T20:00:00Z,29.4080,-84.8580,35.1,2.6,130.0,2.6,'1111122,1111122,1111122' 
NDBC,ioos:station:NOAA.NDBC:SGOF1:1,2015-09-01T21:00:00Z,29.4080,-84.8580,35.1,3.1,50.0,3.6,'1111122,1111122,1111122' 
NDBC,ioos:station:NOAA.NDBC:SGOF1:1,2015-09-01T22:00:00Z,29.4080,-84.8580,35.1,4.1,10.0,4.6,'1111122,1111122,1111122' 
NDBC,ioos:station:NOAA.NDBC:SGOF1:1,2015-09-01T23:00:00Z,29.4080,-84.8580,35.1,5.7,70.0,6.7,'1111122,1111122,1111122' 
NDBC,ioos:station:NOAA.NDBC:SGOF1:1,2015-09-02T00:00:00Z,29.4080,-84.8580,35.1,6.7,80.0,7.2,'1111122,1111122,1111122' 
NDBC,ioos:station:NOAA.NDBC:SGOF1:1,2015-09-02T01:00:00Z,29.4080,-84.8580,35.1,5.1,80.0,5.7,'1111122,1111122,1111122' 
NDBC,ioos:station:NOAA.NDBC:SGOF1:1,2015-09-02T02:00:00Z,29.4080,-84.8580,35.1,5.1,80.0,5.7,'1111122,1111122,1111122' 
NDBC,ioos:station:NOAA.NDBC:SGOF1:1,2015-09-02T03:00:00Z,29.4080,-84.8580,35.1,4.1,70.0,4.6,'1111122,1111122,1111122' 
NDBC,ioos:station:NOAA.NDBC:SGOF1:1,2015-09-02T04:00:00Z,29.4080,-84.8580,35.1,1.0,180.0,1.5,'1111122,1111122,1111122' 
NDBC,ioos:station:NOAA.NDBC:SGOF1:1,2015-09-02T05:00:00Z,29.4080,-84.8580,35.1,1.5,180.0,2.1,'1111122,1111122,1111122' 
NDBC,ioos:station:NOAA.NDBC:SGOF1:1,2015-09-02T06:00:00Z,29.4080,-84.8580,35.1,0.0,-9999.0,0.5,'1114422,1111122,1111122' 
NDBC,ioos:station:NOAA.NDBC:SGOF1:1,2015-09-02T07:00:00Z,29.4080,-84.8580,35.1,1.5,210.0,2.1,'1111122,1111122,1111122' 
NDBC,ioos:station:NOAA.NDBC:SGOF1:1,2015-09-02T09:00:00Z,29.4080,-84.8580,35.1,1.5,260.0,3.1,'1111122,1111122,1111122' 
NDBC,ioos:station:NOAA.NDBC:SGOF1:1,2015-09-02T10:00:00Z,29.4080,-84.8580,35.1,1.5,260.0,3.1,'1111122,1111122,1111122' 
NDBC,ioos:station:NOAA.NDBC:SGOF1:1,2015-09-02T11:00:00Z,29.4080,-84.8580,35.1,4.1,340.0,4.6,'1111122,1111122,1111122' 
NDBC,ioos:station:NOAA.NDBC:SGOF1:1,2015-09-02T12:00:00Z,29.4080,-84.8580,35.1,5.1,340.0,5.7,'1111122,1111122,1111122' 
NDBC,ioos:station:NOAA.NDBC:SGOF1:1,2015-09-02T13:00:00Z,29.4080,-84.8580,35.1,4.1,10.0,4.6,'1111122,1111122,1111122' 
NDBC,ioos:station:NOAA.NDBC:SGOF1:1,2015-09-02T15:00:00Z,29.4080,-84.8580,35.1,2.1,360.0,2.6,'1111122,1111122,1111122' 
NDBC,ioos:station:NOAA.NDBC:SGOF1:1,2015-09-02T16:00:00Z,29.4080,-84.8580,35.1,0.5,20.0,1.0,'1111122,1111122,1111122' 
NDBC,ioos:station:NOAA.NDBC:SGOF1:1,2015-09-02T17:00:00Z,29.4080,-84.8580,35.1,0.5,360.0,1.0,'1111122,1111122,1111122' 
NDBC,ioos:station:NOAA.NDBC:SGOF1:1,2015-09-02T18:00:00Z,29.4080,-84.8580,35.1,0.0,-9999.0,0.5,'1114422,1111122,1111122' 
NDBC,ioos:station:NOAA.NDBC:SGOF1:1,2015-09-02T19:00:00Z,29.4080,-84.8580,35.1,2.1,220.0,3.1,'1111122,1111122,1111122' 
NDBC,ioos:station:NOAA.NDBC:SGOF1:1,2015-09-02T20:00:00Z,29.4080,-84.8580,35.1,4.1,240.0,4.6,'1111122,1111122,1111122' 
NDBC,ioos:station:NOAA.NDBC:SGOF1:1,2015-09-02T21:00:00Z,29.4080,-84.8580,35.1,5.1,240.0,5.7,'1111122,1111122,1111122' 
NDBC,ioos:station:NOAA.NDBC:SGOF1:1,2015-09-02T22:00:00Z,29.4080,-84.8580,35.1,4.6,250.0,5.1,'1111122,1111122,1111122' 
NDBC,ioos:station:NOAA.NDBC:SGOF1:1,2015-09-03T01:00:00Z,29.4080,-84.8580,35.1,4.6,240.0,5.1,'1111122,1111122,1111122' 
NDBC,ioos:station:NOAA.NDBC:SGOF1:1,2015-09-03T03:00:00Z,29.4080,-84.8580,35.1,3.6,260.0,4.1,'1111122,1111122,1111122' 
NDBC,ioos:station:NOAA.NDBC:SGOF1:1,2015-09-03T04:00:00Z,29.4080,-84.8580,35.1,4.6,250.0,5.1,'1111122,1111122,1111122' 
NDBC,ioos:station:NOAA.NDBC:SGOF1:1,2015-09-03T05:00:00Z,29.4080,-84.8580,35.1,4.6,260.0,5.1,'1111122,1111122,1111122' 
NDBC,ioos:station:NOAA.NDBC:SGOF1:1,2015-09-03T06:00:00Z,29.4080,-84.8580,35.1,5.1,260.0,5.7,'1111122,1111122,1111122' 
NDBC,ioos:station:NOAA.NDBC:SGOF1:1,2015-09-03T08:00:00Z,29.4080,-84.8580,35.1,5.1,280.0,5.1,'1111122,1111122,1111122' 
NDBC,ioos:station:NOAA.NDBC:SGOF1:1,2015-09-03T09:00:00Z,29.4080,-84.8580,35.1,4.6,280.0,5.1,'1111122,1111122,1111122' 
NDBC,ioos:station:NOAA.NDBC:SGOF1:1,2015-09-03T10:00:00Z,29.4080,-84.8580,35.1,5.1,290.0,5.7,'1111122,1111122,1111122' 
NDBC,ioos:station:NOAA.NDBC:SGOF1:1,2015-09-03T11:00:00Z,29.4080,-84.8580,35.1,5.1,300.0,5.1,'1111122,1111122,1111122' 
NDBC,ioos:station:NOAA.NDBC:SGOF1:1,2015-09-03T12:00:00Z,29.4080,-84.8580,35.1,5.1,310.0,5.7,'1111122,1111122,1111122' 
NDBC,ioos:station:NOAA.NDBC:SGOF1:1,2015-09-03T13:00:00Z,29.4080,-84.8580,35.1,5.1,330.0,6.2,'1111122,1111122,1111122' 
NDBC,ioos:station:NOAA.NDBC:SGOF1:1,2015-09-03T14:00:00Z,29.4080,-84.8580,35.1,3.6,310.0,4.1,'1111122,1111122,1111122' 
NDBC,ioos:station:NOAA.NDBC:SGOF1:1,2015-09-03T15:00:00Z,29.4080,-84.8580,35.1,3.6,300.0,4.1,'1111122,1111122,1111122' 
NDBC,ioos:station:NOAA.NDBC:SGOF1:1,2015-09-03T16:00:00Z,29.4080,-84.8580,35.1,3.1,300.0,3.6,'1111122,1111122,1111122' 
NDBC,ioos:station:NOAA.NDBC:SGOF1:1,2015-09-03T17:00:00Z,29.4080,-84.8580,35.1,3.6,290.0,4.1,'1111122,1111122,1111122' 
NDBC,ioos:station:NOAA.NDBC:SGOF1:1,2015-09-03T18:00:00Z,29.4080,-84.8580,35.1,5.7,280.0,6.2,'1111122,1111122,1111122' 
NDBC,ioos:station:NOAA.NDBC:SGOF1:1,2015-09-03T19:00:00Z,29.4080,-84.8580,35.1,6.2,270.0,6.7,'1111122,1111122,1111122' 
NDBC,ioos:station:NOAA.NDBC:SGOF1:1,2015-09-03T20:00:00Z,29.4080,-84.8580,35.1,5.1,280.0,6.2,'1111122,1111122,1111122' 
NDBC,ioos:station:NOAA.NDBC:SGOF1:1,2015-09-03T21:00:00Z,29.4080,-84.8580,35.1,4.6,270.0,5.7,'1111122,1111122,1111122' 
NDBC,ioos:station:NOAA.NDBC:SGOF1:1,2015-09-04T00:00:00Z,29.4080,-84.8580,35.1,5.1,320.0,5.7,'1111122,1111122,1111122' 
NDBC,ioos:station:NOAA.NDBC:SGOF1:1,2015-09-04T03:00:00Z,29.4080,-84.8580,35.1,3.6,330.0,4.1,'1111122,1111122,1111122' 
NDBC,ioos:station:NOAA.NDBC:SGOF1:1,2015-09-04T04:00:00Z,29.4080,-84.8580,35.1,3.1,280.0,3.6,'1111122,1111122,1111122' 
NDBC,ioos:station:NOAA.NDBC:SGOF1:1,2015-09-04T05:00:00Z,29.4080,-84.8580,35.1,3.1,280.0,3.6,'1111122,1111122,1111122' 
NDBC,ioos:station:NOAA.NDBC:SGOF1:1,2015-09-04T09:00:00Z,29.4080,-84.8580,35.1,3.1,300.0,3.6,'1111122,1111122,1111122' 
NDBC,ioos:station:NOAA.NDBC:SGOF1:1,2015-09-04T10:00:00Z,29.4080,-84.8580,35.1,3.6,310.0,4.1,'1111122,1111122,1111122' 
NDBC,ioos:station:NOAA.NDBC:SGOF1:1,2015-09-04T11:00:00Z,29.4080,-84.8580,35.1,4.6,340.0,5.1,'1111122,1111122,1111122' 
NDBC,ioos:station:NOAA.NDBC:SGOF1:1,2015-09-04T12:00:00Z,29.4080,-84.8580,35.1,5.1,350.0,5.7,'1111122,1111122,1111122' 
NDBC,ioos:station:NOAA.NDBC:SGOF1:1,2015-09-04T13:00:00Z,29.4080,-84.8580,35.1,6.2,350.0,6.2,'1111122,1111122,1111122' 
NDBC,ioos:station:NOAA.NDBC:SGOF1:1,2015-09-04T14:00:00Z,29.4080,-84.8580,35.1,5.7,340.0,6.2,'1111122,1111122,1111122' 
NDBC,ioos:station:NOAA.NDBC:SGOF1:1,2015-09-04T15:00:00Z,29.4080,-84.8580,35.1,4.1,350.0,4.6,'1111122,1111122,1111122' 
NDBC,ioos:station:NOAA.NDBC:SGOF1:1,2015-09-04T16:00:00Z,29.4080,-84.8580,35.1,2.1,360.0,2.6,'1111122,1111122,1111122' 
NDBC,ioos:station:NOAA.NDBC:SGOF1:1,2015-09-04T17:00:00Z,29.4080,-84.8580,35.1,1.0,250.0,1.5,'1111122,1111122,1111122' 
NDBC,ioos:station:NOAA.NDBC:SGOF1:1,2015-09-04T18:00:00Z,29.4080,-84.8580,35.1,2.1,260.0,2.6,'1111122,1111122,1111122' 
NDBC,ioos:station:NOAA.NDBC:SGOF1:1,2015-09-04T19:00:00Z,29.4080,-84.8580,35.1,4.1,260.0,4.6,'1111122,1111122,1111122' 
NDBC,ioos:station:NOAA.NDBC:SGOF1:1,2015-09-04T20:00:00Z,29.4080,-84.8580,35.1,4.6,250.0,5.1,'1111122,1111122,1111122' 
NDBC,ioos:station:NOAA.NDBC:SGOF1:1,2015-09-04T21:00:00Z,29.4080,-84.8580,35.1,6.2,260.0,6.2,'1111122,1111122,1111122' 
NDBC,ioos:station:NOAA.NDBC:SGOF1:1,2015-09-04T22:00:00Z,29.4080,-84.8580,35.1,7.2,250.0,7.7,'1111122,1111122,1111122' 
NDBC,ioos:station:NOAA.NDBC:SGOF1:1,2015-09-04T23:00:00Z,29.4080,-84.8580,35.1,7.7,270.0,8.2,'1111122,1111122,1111122' 
NDBC,ioos:station:NOAA.NDBC:SGOF1:1,2015-09-05T00:00:00Z,29.4080,-84.8580,35.1,6.2,290.0,6.7,'1111122,1111122,1111122' 
NDBC,ioos:station:NOAA.NDBC:SGOF1:1,2015-09-05T02:00:00Z,29.4080,-84.8580,35.1,4.6,330.0,5.1,'1111122,1111122,1111122' 
NDBC,ioos:station:NOAA.NDBC:SGOF1:1,2015-09-05T07:00:00Z,29.4080,-84.8580,35.1,3.6,290.0,4.1,'1111122,1111122,1111122' 
NDBC,ioos:station:NOAA.NDBC:SGOF1:1,2015-09-05T10:00:00Z,29.4080,-84.8580,35.1,4.6,340.0,5.7,'1111122,1111122,1111122' 
NDBC,ioos:station:NOAA.NDBC:SGOF1:1,2015-09-05T11:00:00Z,29.4080,-84.8580,35.1,4.1,360.0,4.6,'1111122,1111122,1111122' 
NDBC,ioos:station:NOAA.NDBC:SGOF1:1,2015-09-05T12:00:00Z,29.4080,-84.8580,35.1,9.3,170.0,10.3,'1111122,1111122,1111122' 
NDBC,ioos:station:NOAA.NDBC:SGOF1:1,2015-09-05T13:00:00Z,29.4080,-84.8580,35.1,4.1,220.0,5.1,'1111122,1111122,1111122' 
NDBC,ioos:station:NOAA.NDBC:SGOF1:1,2015-09-05T14:00:00Z,29.4080,-84.8580,35.1,1.0,20.0,1.5,'1111122,1111122,1111122' 
NDBC,ioos:station:NOAA.NDBC:SGOF1:1,2015-09-05T15:00:00Z,29.4080,-84.8580,35.1,2.1,60.0,2.6,'1111122,1111122,1111122' 
NDBC,ioos:station:NOAA.NDBC:SGOF1:1,2015-09-05T16:00:00Z,29.4080,-84.8580,35.1,2.6,70.0,3.1,'1111122,1111122,1111122' 
NDBC,ioos:station:NOAA.NDBC:SGOF1:1,2015-09-05T17:00:00Z,29.4080,-84.8580,35.1,3.1,30.0,3.6,'1111122,1111122,1111122' 
NDBC,ioos:station:NOAA.NDBC:SGOF1:1,2015-09-05T18:00:00Z,29.4080,-84.8580,35.1,2.6,60.0,2.6,'1111122,1111122,1111122' 
NDBC,ioos:station:NOAA.NDBC:SGOF1:1,2015-09-05T19:00:00Z,29.4080,-84.8580,35.1,1.5,120.0,2.1,'1111122,1111122,1111122' 
NDBC,ioos:station:NOAA.NDBC:SGOF1:1,2015-09-05T20:00:00Z,29.4080,-84.8580,35.1,1.0,160.0,1.5,'1111122,1111122,1111122' 
NDBC,ioos:station:NOAA.NDBC:SGOF1:1,2015-09-05T21:00:00Z,29.4080,-84.8580,35.1,1.5,190.0,1.5,'1111122,1111122,1111122' 
NDBC,ioos:station:NOAA.NDBC:SGOF1:1,2015-09-05T22:00:00Z,29.4080,-84.8580,35.1,1.0,80.0,1.5,'1111122,1111122,1111122' 
NDBC,ioos:station:NOAA.NDBC:SGOF1:1,2015-09-05T23:00:00Z,29.4080,-84.8580,35.1,1.5,100.0,1.5,'1111122,1111122,1111122' 
NDBC,ioos:station:NOAA.NDBC:SGOF1:1,2015-09-06T00:00:00Z,29.4080,-84.8580,35.1,1.5,310.0,1.5,'1111122,1111122,1111122' 
NDBC,ioos:station:NOAA.NDBC:SGOF1:1,2015-09-06T01:00:00Z,29.4080,-84.8580,35.1,7.2,10.0,8.8,'1111122,1111122,1111122' 
NDBC,ioos:station:NOAA.NDBC:SGOF1:1,2015-09-06T02:00:00Z,29.4080,-84.8580,35.1,5.1,50.0,5.7,'1111122,1111122,1111122' 
NDBC,ioos:station:NOAA.NDBC:SGOF1:1,2015-09-06T03:00:00Z,29.4080,-84.8580,35.1,7.7,60.0,8.2,'1111122,1111122,1111122' 
NDBC,ioos:station:NOAA.NDBC:SGOF1:1,2015-09-06T04:00:00Z,29.4080,-84.8580,35.1,7.2,70.0,7.7,'1111122,1111122,1111122' 
NDBC,ioos:station:NOAA.NDBC:SGOF1:1,2015-09-06T06:00:00Z,29.4080,-84.8580,35.1,4.6,110.0,5.1,'1111122,1111122,1111122' 
NDBC,ioos:station:NOAA.NDBC:SGOF1:1,2015-09-06T09:00:00Z,29.4080,-84.8580,35.1,7.2,100.0,8.2,'1111122,1111122,1111122' 
NDBC,ioos:station:NOAA.NDBC:SGOF1:1,2015-09-06T10:00:00Z,29.4080,-84.8580,35.1,7.2,80.0,7.7,'1111122,1111122,1111122' 
NDBC,ioos:station:NOAA.NDBC:SGOF1:1,2015-09-06T11:00:00Z,29.4080,-84.8580,35.1,8.8,80.0,9.3,'1111122,1111122,1111122' 
NDBC,ioos:station:NOAA.NDBC:SGOF1:1,2015-09-06T12:00:00Z,29.4080,-84.8580,35.1,7.7,70.0,8.8,'1111122,1111122,1111122' 
NDBC,ioos:station:NOAA.NDBC:SGOF1:1,2015-09-06T13:00:00Z,29.4080,-84.8580,35.1,9.8,80.0,10.3,'1111122,1111122,1111122' 
NDBC,ioos:station:NOAA.NDBC:SGOF1:1,2015-09-06T14:00:00Z,29.4080,-84.8580,35.1,10.3,180.0,10.8,'1111122,1111122,1111122' 
NDBC,ioos:station:NOAA.NDBC:SGOF1:1,2015-09-06T15:00:00Z,29.4080,-84.8580,35.1,2.6,230.0,3.1,'1111122,1111122,1111122' 
NDBC,ioos:station:NOAA.NDBC:SGOF1:1,2015-09-06T16:00:00Z,29.4080,-84.8580,35.1,2.6,250.0,2.6,'1111122,1111122,1111122' 
NDBC,ioos:station:NOAA.NDBC:SGOF1:1,2015-09-06T17:00:00Z,29.4080,-84.8580,35.1,1.5,60.0,2.1,'1111122,1111122,1111122' 
NDBC,ioos:station:NOAA.NDBC:SGOF1:1,2015-09-06T18:00:00Z,29.4080,-84.8580,35.1,2.6,340.0,3.1,'1111122,1111122,1111122' 
NDBC,ioos:station:NOAA.NDBC:SGOF1:1,2015-09-06T19:00:00Z,29.4080,-84.8580,35.1,2.1,10.0,2.6,'1111122,1111122,1111122' 
NDBC,ioos:station:NOAA.NDBC:SGOF1:1,2015-09-06T20:00:00Z,29.4080,-84.8580,35.1,3.6,30.0,4.1,'1111122,1111122,1111122' 
NDBC,ioos:station:NOAA.NDBC:SGOF1:1,2015-09-06T21:00:00Z,29.4080,-84.8580,35.1,4.1,30.0,4.6,'1111122,1111122,1111122' 
NDBC,ioos:station:NOAA.NDBC:SGOF1:1,2015-09-06T22:00:00Z,29.4080,-84.8580,35.1,4.1,50.0,5.1,'1111122,1111122,1111122' 
NDBC,ioos:station:NOAA.NDBC:SGOF1:1,2015-09-06T23:00:00Z,29.4080,-84.8580,35.1,4.1,70.0,4.6,'1111122,1111122,1111122' 
NDBC,ioos:station:NOAA.NDBC:SGOF1:1,2015-09-07T01:00:00Z,29.4080,-84.8580,35.1,5.7,40.0,6.2,'1111122,1111122,1111122' 
NDBC,ioos:station:NOAA.NDBC:SGOF1:1,2015-09-07T02:00:00Z,29.4080,-84.8580,35.1,8.2,150.0,9.3,'1111122,1111122,1111122' 
NDBC,ioos:station:NOAA.NDBC:SGOF1:1,2015-09-07T03:00:00Z,29.4080,-84.8580,35.1,5.7,70.0,6.2,'1111122,1111122,1111122' 
NDBC,ioos:station:NOAA.NDBC:SGOF1:1,2015-09-07T04:00:00Z,29.4080,-84.8580,35.1,9.3,80.0,10.3,'1111122,1111122,1111122' 
NDBC,ioos:station:NOAA.NDBC:SGOF1:1,2015-09-07T05:00:00Z,29.4080,-84.8580,35.1,9.3,80.0,10.8,'1111122,1111122,1111122' 
NDBC,ioos:station:NOAA.NDBC:SGOF1:1,2015-09-07T06:00:00Z,29.4080,-84.8580,35.1,9.8,90.0,10.3,'1111122,1111122,1111122' 
NDBC,ioos:station:NOAA.NDBC:SGOF1:1,2015-09-07T08:00:00Z,29.4080,-84.8580,35.1,6.2,70.0,7.2,'1111122,1111122,1111122' 
NDBC,ioos:station:NOAA.NDBC:SGOF1:1,2015-09-07T10:00:00Z,29.4080,-84.8580,35.1,6.7,60.0,7.2,'1111122,1111122,1111122' 
NDBC,ioos:station:NOAA.NDBC:SGOF1:1,2015-09-07T13:00:00Z,29.4080,-84.8580,35.1,6.7,50.0,7.7,'1111122,1111122,1111122' 
NDBC,ioos:station:NOAA.NDBC:SGOF1:1,2015-09-07T14:00:00Z,29.4080,-84.8580,35.1,5.7,140.0,6.2,'1111122,1111122,1111122' 
NDBC,ioos:station:NOAA.NDBC:SGOF1:1,2015-09-07T15:00:00Z,29.4080,-84.8580,35.1,7.2,40.0,7.7,'1111122,1111122,1111122' 
NDBC,ioos:station:NOAA.NDBC:SGOF1:1,2015-09-07T16:00:00Z,29.4080,-84.8580,35.1,8.8,30.0,9.8,'1111122,1111122,1111122' 
NDBC,ioos:station:NOAA.NDBC:SGOF1:1,2015-09-07T17:00:00Z,29.4080,-84.8580,35.1,8.8,30.0,9.3,'1111122,1111122,1111122' 
NDBC,ioos:station:NOAA.NDBC:SGOF1:1,2015-09-07T18:00:00Z,29.4080,-84.8580,35.1,7.7,40.0,9.3,'1111122,1111122,1111122' 
NDBC,ioos:station:NOAA.NDBC:SGOF1:1,2015-09-07T20:00:00Z,29.4080,-84.8580,35.1,6.7,60.0,7.7,'1111122,1111122,1111122' 
NDBC,ioos:station:NOAA.NDBC:SGOF1:1,2015-09-07T21:00:00Z,29.4080,-84.8580,35.1,6.7,100.0,7.7,'1111122,1111122,1111122' 
NDBC,ioos:station:NOAA.NDBC:SGOF1:1,2015-09-07T22:00:00Z,29.4080,-84.8580,35.1,7.7,60.0,8.2,'1111122,1111122,1111122' 
NDBC,ioos:station:NOAA.NDBC:SGOF1:1,2015-09-07T23:00:00Z,29.4080,-84.8580,35.1,8.2,50.0,8.8,'1111122,1111122,1111122' 
NDBC,ioos:station:NOAA.NDBC:SGOF1:1,2015-09-08T00:00:00Z,29.4080,-84.8580,35.1,7.7,40.0,8.8,'1111122,1111122,1111122' 
NDBC,ioos:station:NOAA.NDBC:SGOF1:1,2015-09-08T01:00:00Z,29.4080,-84.8580,35.1,9.8,40.0,10.8,'1111122,1111122,1111122' 
NDBC,ioos:station:NOAA.NDBC:SGOF1:1,2015-09-08T02:00:00Z,29.4080,-84.8580,35.1,12.4,80.0,13.9,'1111122,1111122,1111122' 
NDBC,ioos:station:NOAA.NDBC:SGOF1:1,2015-09-08T03:00:00Z,29.4080,-84.8580,35.1,9.3,60.0,10.3,'1111122,1111122,1111122' 
NDBC,ioos:station:NOAA.NDBC:SGOF1:1,2015-09-08T04:00:00Z,29.4080,-84.8580,35.1,10.3,60.0,11.3,'1111122,1111122,1111122' 
NDBC,ioos:station:NOAA.NDBC:SGOF1:1,2015-09-08T05:00:00Z,29.4080,-84.8580,35.1,9.8,60.0,10.3,'1111122,1111122,1111122' 
NDBC,ioos:station:NOAA.NDBC:SGOF1:1,2015-09-08T06:00:00Z,29.4080,-84.8580,35.1,10.8,50.0,12.4,'1111122,1111122,1111122' 
NDBC,ioos:station:NOAA.NDBC:SGOF1:1,2015-09-08T07:00:00Z,29.4080,-84.8580,35.1,10.3,50.0,11.3,'1111122,1111122,1111122' 
NDBC,ioos:station:NOAA.NDBC:SGOF1:1,2015-09-08T08:00:00Z,29.4080,-84.8580,35.1,9.8,50.0,11.8,'1111122,1111122,1111122' 
NDBC,ioos:station:NOAA.NDBC:SGOF1:1,2015-09-08T09:00:00Z,29.4080,-84.8580,35.1,9.8,20.0,10.3,'1111122,1111122,1111122' 
NDBC,ioos:station:NOAA.NDBC:SGOF1:1,2015-09-08T10:00:00Z,29.4080,-84.8580,35.1,8.2,360.0,9.3,'1111122,1111122,1111122' 
NDBC,ioos:station:NOAA.NDBC:SGOF1:1,2015-09-08T11:00:00Z,29.4080,-84.8580,35.1,7.7,350.0,9.3,'1111122,1111122,1111122' 
NDBC,ioos:station:NOAA.NDBC:SGOF1:1,2015-09-08T12:00:00Z,29.4080,-84.8580,35.1,7.2,330.0,8.8,'1111122,1111122,1111122' 
NDBC,ioos:station:NOAA.NDBC:SGOF1:1,2015-09-08T13:00:00Z,29.4080,-84.8580,35.1,6.2,310.0,7.2,'1111122,1111122,1111122' 
NDBC,ioos:station:NOAA.NDBC:SGOF1:1,2015-09-08T14:00:00Z,29.4080,-84.8580,35.1,4.6,320.0,5.7,'1111122,1111122,1111122' 
NDBC,ioos:station:NOAA.NDBC:SGOF1:1,2015-09-08T15:00:00Z,29.4080,-84.8580,35.1,3.6,280.0,5.1,'1111122,1111122,1111122' 
NDBC,ioos:station:NOAA.NDBC:SGOF1:1,2015-09-08T16:00:00Z,29.4080,-84.8580,35.1,4.6,260.0,5.1,'1111122,1111122,1111122' 
NDBC,ioos:station:NOAA.NDBC:SGOF1:1,2015-09-08T17:00:00Z,29.4080,-84.8580,35.1,5.1,260.0,5.7,'1111122,1111122,1111122' 
NDBC,ioos:station:NOAA.NDBC:SGOF1:1,2015-09-08T18:00:00Z,29.4080,-84.8580,35.1,5.1,250.0,5.7,'1111122,1111122,1111122' 
NDBC,ioos:station:NOAA.NDBC:SGOF1:1,2015-09-08T19:00:00Z,29.4080,-84.8580,35.1,5.7,250.0,6.2,'1111122,1111122,1111122' 
NDBC,ioos:station:NOAA.NDBC:SGOF1:1,2015-09-08T20:00:00Z,29.4080,-84.8580,35.1,7.2,240.0,7.7,'1111122,1111122,1111122' 
NDBC,ioos:station:NOAA.NDBC:SGOF1:1,2015-09-08T21:00:00Z,29.4080,-84.8580,35.1,6.2,250.0,7.2,'1111122,1111122,1111122' 
NDBC,ioos:station:NOAA.NDBC:SGOF1:1,2015-09-08T23:00:00Z,29.4080,-84.8580,35.1,5.1,220.0,5.1,'1111122,1111122,1111122' 
NDBC,ioos:station:NOAA.NDBC:SGOF1:1,2015-09-09T01:00:00Z,29.4080,-84.8580,35.1,4.6,200.0,5.7,'1111122,1111122,1111122' 
NDBC,ioos:station:NOAA.NDBC:SGOF1:1,2015-09-09T02:00:00Z,29.4080,-84.8580,35.1,5.1,190.0,5.7,'1111122,1111122,1111122' 
NDBC,ioos:station:NOAA.NDBC:SGOF1:1,2015-09-09T03:00:00Z,29.4080,-84.8580,35.1,6.7,190.0,7.2,'1111122,1111122,1111122' 
NDBC,ioos:station:NOAA.NDBC:SGOF1:1,2015-09-09T04:00:00Z,29.4080,-84.8580,35.1,7.7,200.0,8.8,'1111122,1111122,1111122' 
NDBC,ioos:station:NOAA.NDBC:SGOF1:1,2015-09-09T05:00:00Z,29.4080,-84.8580,35.1,5.1,210.0,6.2,'1111122,1111122,1111122' 
NDBC,ioos:station:NOAA.NDBC:SGOF1:1,2015-09-09T06:00:00Z,29.4080,-84.8580,35.1,5.1,210.0,5.7,'1111122,1111122,1111122' 
NDBC,ioos:station:NOAA.NDBC:SGOF1:1,2015-09-09T08:00:00Z,29.4080,-84.8580,35.1,5.1,230.0,6.2,'1111122,1111122,1111122' 
NDBC,ioos:station:NOAA.NDBC:SGOF1:1,2015-09-09T09:00:00Z,29.4080,-84.8580,35.1,4.6,220.0,5.1,'1111122,1111122,1111122' 
NDBC,ioos:station:NOAA.NDBC:SGOF1:1,2015-09-09T10:00:00Z,29.4080,-84.8580,35.1,4.1,210.0,4.6,'1111122,1111122,1111122' 
NDBC,ioos:station:NOAA.NDBC:SGOF1:1,2015-09-09T11:00:00Z,29.4080,-84.8580,35.1,4.6,220.0,5.7,'1111122,1111122,1111122' 
NDBC,ioos:station:NOAA.NDBC:SGOF1:1,2015-09-09T12:00:00Z,29.4080,-84.8580,35.1,4.6,220.0,5.1,'1111122,1111122,1111122' 
NDBC,ioos:station:NOAA.NDBC:SGOF1:1,2015-09-09T13:00:00Z,29.4080,-84.8580,35.1,3.1,220.0,3.6,'1111122,1111122,1111122' 
NDBC,ioos:station:NOAA.NDBC:SGOF1:1,2015-09-09T14:00:00Z,29.4080,-84.8580,35.1,2.6,240.0,2.6,'1111122,1111122,1111122' 
NDBC,ioos:station:NOAA.NDBC:SGOF1:1,2015-09-09T15:00:00Z,29.4080,-84.8580,35.1,1.5,230.0,2.1,'1111122,1111122,1111122' 
NDBC,ioos:station:NOAA.NDBC:SGOF1:1,2015-09-09T16:00:00Z,29.4080,-84.8580,35.1,1.5,210.0,2.1,'1111122,1111122,1111122' 
NDBC,ioos:station:NOAA.NDBC:SGOF1:1,2015-09-09T17:00:00Z,29.4080,-84.8580,35.1,1.5,180.0,2.1,'1111122,1111122,1111122' 
NDBC,ioos:station:NOAA.NDBC:SGOF1:1,2015-09-09T18:00:00Z,29.4080,-84.8580,35.1,2.1,160.0,2.6,'1111122,1111122,1111122' 
NDBC,ioos:station:NOAA.NDBC:SGOF1:1,2015-09-09T19:00:00Z,29.4080,-84.8580,35.1,2.6,180.0,3.1,'1111122,1111122,1111122' 
NDBC,ioos:station:NOAA.NDBC:SGOF1:1,2015-09-09T20:00:00Z,29.4080,-84.8580,35.1,3.1,170.0,3.6,'1111122,1111122,1111122' 
NDBC,ioos:station:NOAA.NDBC:SGOF1:1,2015-09-09T21:00:00Z,29.4080,-84.8580,35.1,5.7,170.0,6.2,'1111122,1111122,1111122' 
NDBC,ioos:station:NOAA.NDBC:SGOF1:1,2015-09-09T22:00:00Z,29.4080,-84.8580,35.1,4.6,180.0,5.1,'1111122,1111122,1111122' 
NDBC,ioos:station:NOAA.NDBC:SGOF1:1,2015-09-09T23:00:00Z,29.4080,-84.8580,35.1,6.2,200.0,6.7,'1111122,1111122,1111122' 
NDBC,ioos:station:NOAA.NDBC:SGOF1:1,2015-09-10T01:00:00Z,29.4080,-84.8580,35.1,5.1,220.0,5.7,'1111122,1111122,1111122' 
NDBC,ioos:station:NOAA.NDBC:SGOF1:1,2015-09-10T02:00:00Z,29.4080,-84.8580,35.1,5.1,220.0,5.7,'1111122,1111122,1111122' 
NDBC,ioos:station:NOAA.NDBC:SGOF1:1,2015-09-10T04:00:00Z,29.4080,-84.8580,35.1,5.7,220.0,6.2,'1111122,1111122,1111122' 
NDBC,ioos:station:NOAA.NDBC:SGOF1:1,2015-09-10T05:00:00Z,29.4080,-84.8580,35.1,6.2,230.0,6.7,'1111122,1111122,1111122' 
NDBC,ioos:station:NOAA.NDBC:SGOF1:1,2015-09-10T06:00:00Z,29.4080,-84.8580,35.1,6.2,210.0,6.7,'1111122,1111122,1111122' 
NDBC,ioos:station:NOAA.NDBC:SGOF1:1,2015-09-10T08:00:00Z,29.4080,-84.8580,35.1,7.2,260.0,7.7,'1111122,1111122,1111122' 
NDBC,ioos:station:NOAA.NDBC:SGOF1:1,2015-09-10T09:00:00Z,29.4080,-84.8580,35.1,6.7,250.0,6.7,'1111122,1111122,1111122' 
NDBC,ioos:station:NOAA.NDBC:SGOF1:1,2015-09-10T10:00:00Z,29.4080,-84.8580,35.1,6.7,270.0,7.2,'1111122,1111122,1111122' 
NDBC,ioos:station:NOAA.NDBC:SGOF1:1,2015-09-10T11:00:00Z,29.4080,-84.8580,35.1,6.2,260.0,6.2,'1111122,1111122,1111122' 
NDBC,ioos:station:NOAA.NDBC:SGOF1:1,2015-09-10T12:00:00Z,29.4080,-84.8580,35.1,4.6,280.0,5.1,'1111122,1111122,1111122' 
NDBC,ioos:station:NOAA.NDBC:SGOF1:1,2015-09-10T13:00:00Z,29.4080,-84.8580,35.1,6.2,270.0,6.7,'1111122,1111122,1111122' 
NDBC,ioos:station:NOAA.NDBC:SGOF1:1,2015-09-10T14:00:00Z,29.4080,-84.8580,35.1,5.7,260.0,6.2,'1111122,1111122,1111122' 
NDBC,ioos:station:NOAA.NDBC:SGOF1:1,2015-09-10T15:00:00Z,29.4080,-84.8580,35.1,6.7,260.0,7.2,'1111122,1111122,1111122' 
NDBC,ioos:station:NOAA.NDBC:SGOF1:1,2015-09-10T16:00:00Z,29.4080,-84.8580,35.1,5.1,250.0,6.2,'1111122,1111122,1111122' 
NDBC,ioos:station:NOAA.NDBC:SGOF1:1,2015-09-10T17:00:00Z,29.4080,-84.8580,35.1,5.7,240.0,6.2,'1111122,1111122,1111122' 
NDBC,ioos:station:NOAA.NDBC:SGOF1:1,2015-09-10T18:00:00Z,29.4080,-84.8580,35.1,5.1,230.0,6.7,'1111122,1111122,1111122' 
NDBC,ioos:station:NOAA.NDBC:SGOF1:1,2015-09-10T19:00:00Z,29.4080,-84.8580,35.1,6.2,230.0,6.7,'1111122,1111122,1111122' 
NDBC,ioos:station:NOAA.NDBC:SGOF1:1,2015-09-10T20:00:00Z,29.4080,-84.8580,35.1,7.7,230.0,8.8,'1111122,1111122,1111122' 